sat.trackr.live / text

‹ back to catalog

STARLINK-32669

NORAD 62213 · 2024-229X

PAYLOAD ACTIVE UNKNOWN

§ Identity

Operator
Country
US
Launch date
2024-12-04
Launch site
AFETR
Launch vehicle
Mass (kg)
RCS (m²)

Purposes: comms

External: N2YO · Heavens-Above · Gunter

§ Orbital elements

Epoch: 2026-05-25T03:56:05.487360Z

Period
94.27 min
Inclination
43.0010°
Eccentricity
0.0003214
Mean motion
15.27554077 rev/d
Perigee alt
480.9 km
Apogee alt
485.3 km
Semi-major
6,861.3 km
B*
4.2372e-4
RAAN
199.1214°
Arg perigee
282.0157°
Mean anomaly
78.0335°
Rev number
8,225

§ Raw data

STARLINK-326691 62213U 24229X   26145.16395240  .00011407  00000+0  42372-3 0  99942 62213  43.0010 199.1214 0003214 282.0157  78.0335 15.27554077 82252

JSON: /api/v1/satellites/62213 · /tle

For live sub-satellite position, see the globe view (requires WebGL).

§ Visibility from observer

Set your observer location to see the next 7 days of passes ≥ 10°. The values pass through the URL so the page stays shareable.

No JS? Fill the form by hand. The geolocation button needs JavaScript.